Regional Weather Roundup
Issued by NWS

Home | Current Version | Previous Version | Text Only | Print | Product List | Glossary Off
Versions: 1 2 3 4 5 6 7 8 9 10 11 12 13 14 15 16 17 18 19 20 21 22 23 24 25 26 27 28 29 30 31 32 33 34 35 36 37 38 39 40 41 42 43 44 45 46 47 48 49 50

000
ASUS43 KOAX 271702
RWRNE

WEATHER ROUNDUP FOR NEBRASKA
NATIONAL WEATHER SERVICE OMAHA NE
1200 PM CDT FRI MAY 27 2016

NOTES: SATELLITE DATA IS BEING USED TO AUGMENT CLOUD COVER ABOVE
       12000 FEET.
       "FAIR" INDICATES FEW OR NO CLOUDS BELOW 12,000 FEET WITH NO
       SIGNIFICANT WEATHER AND/OR OBSTRUCTIONS TO VISIBILITY.

  * THESE STATIONS DO NOT REPORT WEATHER SUCH AS RAIN...SNOW OR FOG.

NEZ001>004-019>022-054>056-271800-
NEBRASKA PANHANDLE

CITY           SKY/WX    TMP DP  RH WIND       PRES   REMARKS
SCOTTSBLUFF    LGT RAIN  57  46  66 E13       29.89R
ALLIANCE       RAIN      51  49  92 N15       29.88R FOG
CHADRON        CLOUDY    61  44  53 E7        29.88R
SIDNEY         MOSUNNY   53  48  83 N12       29.86R
$$

NEZ057>060-069>072-079>082-271800-
SOUTHWEST NEBRASKA

CITY           SKY/WX    TMP DP  RH WIND       PRES   REMARKS
NORTH PLATTE   CLOUDY    61  54  77 NE10      29.79S
IMPERIAL       CLOUDY    60  52  74 NE14      29.79R
LEXINGTON      CLOUDY    60  56  85 E9        29.78S
MCCOOK         CLOUDY    61  54  77 E13       29.77R
$$

NEZ005>010-023>029-035>040-094-271800-
NORTH CENTRAL NEBRASKA

CITY           SKY/WX    TMP DP  RH WIND       PRES   REMARKS
VALENTINE      CLOUDY    58  52  80 N7        29.85S
AINSWORTH      CLOUDY    60  55  82 NW13      29.82F
BROKEN BOW     CLOUDY    66  54  65 E9        29.78R
O`NEILL        CLOUDY    67  56  68 NW6       29.78S
ORD            CLOUDY    69  54  58 E3        29.77R
$$

NEZ041-046>049-061>064-073>077-083>087-271800-
SOUTH CENTRAL NEBRASKA

CITY           SKY/WX    TMP DP  RH WIND       PRES   REMARKS
GRAND ISLAND   CLOUDY    61  58  90 SE6       29.80R
HASTINGS       CLOUDY    62  58  86 E8        29.79R
KEARNEY *      CLOUDY    61  55  82 E12       29.79F
YORK           LGT RAIN  63  59  88 NE3       29.80R
$$

NEZ011>018-030>034-042>045-271800-
NORTHEAST NEBRASKA

CITY           SKY/WX    TMP DP  RH WIND       PRES   REMARKS
NORFOLK        SUNNY     71  57  61 S10       29.75S
ALBION         CLOUDY    69  56  63 S7        29.78R
BLAIR          MOSUNNY   72  60  67 SE5       29.77R
FREMONT        MOSUNNY   71  59  66 S6        29.77R
TEKAMAH        SUNNY     73  56  54 CALM      29.74S
$$

NEZ050>053-065>068-078-088>093-271800-
SOUTHEAST NEBRASKA

CITY           SKY/WX    TMP DP  RH WIND       PRES   REMARKS
LINCOLN        CLOUDY    68  59  73 SW6       29.79R
OMAHA EPPLEY   PTSUNNY   72  61  68 S9        29.76R
FALLS CITY     MOSUNNY   72  64  76 W8        29.73F
PLATTSMOUTH    CLOUDY    71  63  74 SE6       29.78R
$$

NEZ044-045-051>053-067-271800-
OMAHA AREA

CITY           SKY/WX    TMP DP  RH WIND       PRES   REMARKS
OMAHA EPPLEY   PTSUNNY   72  61  68 S9        29.76R
BLAIR          MOSUNNY   72  60  67 SE5       29.77R
FREMONT        MOSUNNY   71  59  66 S6        29.77R
OFFUTT AFB     PTSUNNY   70  63  78 SE10      29.77R
PLATTSMOUTH    CLOUDY    71  63  74 SE6       29.78R
$$




USA.gov is the U.S. government's official web portal to all federal, state and local government web resources and services.